Regional Weather Roundup
Issued by NWS

Home | Current Version | Previous Version | Text Only | Print | Product List | Glossary Off
Versions: 1 2 3 4 5 6 7 8 9 10 11 12 13 14 15 16 17 18 19 20 21 22 23 24 25 26 27 28 29 30 31 32 33 34 35 36 37 38 39 40 41 42 43 44 45 46 47 48 49 50

000
ASUS43 KLSX 031610
RWRMO

WEATHER SUMMARY FOR MISSOURI
NATIONAL WEATHER SERVICE SPRINGFIELD MO
1100 AM CDT TUE MAY 03 2016

NOTE: "FAIR" INDICATES FEW OR NO CLOUDS BELOW 12,000 FEET WITH NO
       SIGNIFICANT WEATHER AND/OR OBSTRUCTIONS TO VISIBILITY.
       CURRENT SKY AND/OR WEATHER CONDITIONS ARE NOT AVAILABLE FOR
       CHILLICOTHE AND FARMINGTON.

MOZ001>031-035>038-043-044-053-054-031700-
...NORTHERN AND WESTERN MISSOURI...

CITY           SKY/WX    TMP DP  RH WIND       PRES   REMARKS
KANSAS CTY INT MOSUNNY   62  44  51 VRB3      30.08F
KANSAS C DTWN  SUNNY     63  47  55 CALM      30.08F
LEE`S SUMMIT   SUNNY     62  43  49 NW7       30.09S
ST JOSEPH      SUNNY     62  47  57 CALM      30.08F
CHILLICOTHE      N/A     62  50  64 VRB3      30.08S
KIRKSVILLE     SUNNY     61  43  51 SW5       30.06F

$$
MOZ066>068-077>081-088>096-101>105-031700-
...SOUTHWEST MISSOURI...

CITY           SKY/WX    TMP DP  RH WIND       PRES   REMARKS
SPRINGFIELD    MOSUNNY   59  45  59 NW8G17    30.10R
JOPLIN         SUNNY     59  45  59 N6        30.12S
BRANSON        PTSUNNY   57  43  58 NE10      30.11S

$$
MOZ032>034-039>042-045>050-055>058-069>072-031700-
...CENTRAL MISSOURI...

CITY           SKY/WX    TMP DP  RH WIND       PRES   REMARKS
COLUMBIA       SUNNY     58  48  69 N5        30.07F
JEFFERSON CITY MOSUNNY   55  49  80 CALM      30.08S
ROLLA          PTSUNNY   57  47  69 N9        30.06S
SEDALIA        SUNNY     62  47  57 N9        30.09S
WHITEMAN AFB   MOSUNNY   60  48  65 NW8       30.08S
OSAGE BEACH    CLOUDY    55  43  62 SW7       30.09S

$$
MOZ051-052-059>065-031700-
...EAST CENTRAL MISSOURI...

CITY           SKY/WX    TMP DP  RH WIND       PRES   REMARKS
ST LOUIS INTL  MOSUNNY   62  46  55 NW7       30.04F
SPIRIT OF STL  PTSUNNY   61  47  59 VRB5      30.04S
ST CHARLES     MOSUNNY   64  47  53 NE8       30.03F

$$
MOZ072>076-082>087-097>100-106>115-031700-
...SOUTH CENTRAL AND SOUTHEAST MISSOURI...

CITY           SKY/WX    TMP DP  RH WIND       PRES   REMARKS
CAPE GIRARDEAU CLOUDY    60  49  66 N9        30.03F
FARMINGTON     PTSUNNY   56  47  71 NW8       30.05S
POPLAR BLUFF   CLOUDY    59  49  69 N9        30.04S
WEST PLAINS    MOSUNNY   58  43  57 N10       30.07F

$$




USA.gov is the U.S. government's official web portal to all federal, state and local government web resources and services.